Regional Weather Roundup
Issued by NWS New Orleans/Baton Rouge, LA

Home | Current Version | Previous Version | Text Only | Print | Product List | Glossary On
Versions: 1 2 3 4 5 6 7 8 9 10 11 12 13 14 15 16 17 18 19 20 21 22 23 24 25 26 27 28 29 30 31 32 33 34 35 36 37 38 39 40 41 42 43 44 45 46 47 48 49 50
000
ASUS44 KLIX 300111
RWRLIX
NEW ORLEANS REGIONAL WEATHER ROUNDUP
NATIONAL WEATHER SERVICE NEW ORLEANS LA
800 PM CDT WED JUL 29 2015

NOTE: "FAIR" INDICATES FEW OR NO CLOUDS BELOW 12,000 FEET WITH NO
      SIGNIFICANT WEATHER AND/OR OBSTRUCTIONS TO VISIBILITY.
      SKY/WX - SKY CONDITION AND SIGNIFICANT WEATHER.
      TMP - AIR TEMPERATURE.     DP    - DEWPOINT TEMPERATURE.
      RH  - RELATIVE HUMIDITY.   PRES  - PRESSURE.
      HI  - HEAT INDEX.          WCI   - WIND CHILL INDEX.

*  THESE STATIONS ARE NOT NWS OR FAA STATIONS AND ARE NOT UNDER
   NWS QUALITY CONTROL.

LAZ038-040-048-061>063-065>067-069-300200-
SOUTHEAST LOUISIANA

CITY           SKY/WX    TMP DP  RH WIND       PRES   REMARKS
N.O. AUDUBON     N/A     75  75 100 MISG        N/A
N.O. INTL ARPT CLOUDY    77  72  84 E12       29.99F THUNDER
N.O. LAKEFRONT LGT RAIN  78  74  87 S5        29.99F
N.O. DOWNTOWN* CLOUDY    77  75  94 SE3       30.01F
RESERVE*       MOCLDY    86  74  67 E12G17    30.02R HX  95
SLIDELL        CLOUDY    76  75  97 S3        29.98F THUNDER
BATON ROUGE    CLOUDY    87  74  64 CALM      29.97F HX  95
BOOTHVILLE     MOCLDY    88  75  65 S8        29.98S HX  97
BELLE CHASSE   TSTM      76  74  93 E6        30.02R
BOGALUSA*      TSTM      79  73  83 E15G22    30.04R
GALLIANO*      NOT AVBL
NEW ROADS*       N/A    N/A N/A N/A CALM      29.97F
GONZALES*        N/A     80  74  83 CALM      29.97F
HAMMOND*       CLOUDY    84  68  58 SE9       30.01R
HOUMA*         MOCLDY    84  74  70 W6        30.00R
PORT FOURCHON* NOT AVBL

$$

MSZ070-080>082-300200-
SOUTHERN MISSISSIPPI

CITY           SKY/WX    TMP DP  RH WIND       PRES   REMARKS
MCCOMB         CLOUDY    80  75  84 NE5       30.02R
GULFPORT       HVY RAIN  78  73  84 N21G38    30.03R
BILOXI         CLOUDY    81  77  88 N12       30.00R
PASCAGOULA     CLOUDY    80  79  96 W5        29.98F
STENNIS ARPT*  MOCLDY    79  72  78 NW7       30.02R

$$

COASTAL OBSERVATIONS
LAKE AND NEARSHORE STATIONS

STATION/POSITION TIME  TEMP    WIND        PRES    WAVE
                       AIR SEA DIR/SP/G            HT/PER
                 (UTC) (F)     (DEG/KT/KT) (MB)    (FT/S)
PASCAGOULA       0000   85                   N/A
WAVELAND YACHT   0000   79 91                N/A
GRAND ISLE       0000   90 90                N/A
SOUTHWEST PASS   0000   88 87                N/A
NEW CANAL        0000   78 91                N/A
SHELL BEACH      0000   81 90                N/A

OFFSHORE STATIONS

STATION/POSITION TIME  TEMP    WIND        PRES    WAVE
                       AIR SEA DIR/SP/G            HT/PER
                 (UTC) (F)     (DEG/KT/KT) (MB)    (FT/S)
64 S DAUPHIN ISL 0050   87 91  240/ 10/ 12 1014.5    1

$$



USA.gov is the U.S. government's official web portal to all federal, state and local government web resources and services.